Wind_Speed
16 16 17 17 18 18 19 19 19 19 19 19 20 20 21 22 24 25 27 30 33 36 38 40 41 42 43 43 44 44 45 46 47 47 45 46 48 47 46 45 44 43 43 45 45 44 43 43 41 40 39 37 35 32 29 26 23 20 18 16 16 16 15 13 12 13 11 10 3 1 7 5 2 3 5 7 7 7 12 17 19 21 23 23 25 28 29 29
18 18 19 19 20 20 21 21 21 22 22 22 22 22 23 23 24 26 27 29 31 34 37 40 42 43 44 45 45 45 46 47 48 47 46 47 47 48 48 48 47 44 44 45 46 45 45 44 43 42 41 39 36 33 31 28 25 22 20 18 16 16 15 14 12 11 11 12 5 2 7 5 5 8 7 7 6 4 9 14 16 19 21 22 23 25 27 28
20 20 20 21 21 22 22 23 23 24 25 25 25 25 25 25 26 27 28 30 32 33 36 39 41 43 45 46 47 47 47 48 48 47 48 48 47 49 50 49 49 46 46 46 46 47 47 46 45 43 42 40 38 35 33 30 28 24 22 20 18 16 16 16 13 12 11 12 6 6 7 7 7 10 9 7 6 2 7 12 14 16 20 21 22 23 25 26
20 20 20 21 21 22 23 24 25 26 27 27 28 28 29 29 29 29 30 31 32 34 35 37 40 43 45 47 48 49 49 49 48 48 49 49 48 50 50 51 51 48 47 47 48 48 48 47 46 44 42 41 39 37 35 32 30 27 25 22 20 18 17 18 17 16 14 15 12 8 7 8 10 12 11 7 6 3 4 9 13 15 18 20 21 21 22 24
21 21 21 22 22 23 24 25 26 27 28 29 30 31 31 32 33 33 33 33 34 35 36 37 39 41 44 47 49 50 51 51 49 50 51 50 50 50 50 52 52 51 50 49 49 49 49 49 47 45 43 42 41 39 37 34 32 30 27 25 22 20 19 20 20 17 16 17 16 15 13 13 15 14 10 7 8 5 2 8 12 13 16 19 20 19 20 22
22 22 22 23 24 25 26 26 28 29 30 31 32 32 33 34 35 36 37 37 37 36 37 38 39 41 43 46 49 50 52 52 52 52 52 52 52 52 51 52 54 53 52 51 50 50 50 50 49 46 44 43 42 40 39 37 35 32 29 27 24 22 21 22 22 18 18 17 14 18 18 16 16 13 10 8 9 6 5 8 10 12 14 17 18 18 18 21
23 23 24 25 26 27 28 29 30 31 32 33 33 34 35 36 37 38 39 40 40 40 39 39 40 42 43 45 48 50 52 53 54 54 53 53 54 54 53 53 54 55 54 53 51 50 51 51 50 47 46 45 44 42 41 39 37 35 32 29 26 24 23 23 23 19 20 19 14 16 15 14 14 12 9 8 9 7 6 7 8 10 11 14 17 17 16 19
25 25 26 27 28 29 31 32 33 33 34 35 36 36 37 38 39 40 41 42 43 44 43 43 43 43 44 45 47 49 51 53 55 56 55 55 56 56 55 54 55 55 55 54 53 52 51 51 50 48 47 46 45 44 43 41 39 37 34 32 29 26 23 23 24 21 21 20 17 15 13 13 13 11 10 9 8 7 7 6 6 7 9 12 14 15 16 17
27 28 29 30 31 32 33 34 35 36 37 38 39 39 40 41 41 42 42 43 44 45 46 47 47 46 46 47 48 49 51 54 55 57 57 57 57 58 57 56 56 56 56 56 55 53 52 52 51 49 48 48 47 46 45 43 41 39 37 35 31 27 24 23 24 23 21 21 19 16 15 15 14 12 11 10 8 6 5 3 3 5 6 9 11 12 15 16
30 30 31 32 33 35 36 36 37 38 39 41 42 43 43 44 44 44 44 45 45 46 48 49 50 50 49 49 49 50 51 54 56 57 59 59 59 59 59 59 57 57 57 57 57 55 53 53 52 51 49 49 49 47 46 45 43 41 40 37 32 29 27 24 25 26 23 21 20 19 17 17 16 15 13 12 10 7 4 2 1 2 4 6 9 11 13 16
32 32 33 35 36 38 39 39 40 41 42 44 45 46 47 48 48 48 48 47 48 48 49 50 52 53 53 53 52 52 53 55 56 58 59 60 61 60 61 61 60 58 58 58 58 56 55 54 53 52 50 51 51 49 48 46 45 44 42 40 35 32 29 26 26 27 24 22 21 19 17 17 17 17 16 15 13 10 7 5 3 1 2 4 7 10 11 14
35 35 36 37 39 40 42 43 44 45 46 47 49 50 51 51 51 50 51 51 51 51 52 53 54 55 56 56 55 55 55 57 58 58 60 61 62 62 62 62 61 60 60 60 59 57 56 56 55 54 53 52 51 50 49 48 47 46 45 42 38 34 31 28 26 26 26 24 21 19 18 17 18 18 16 15 14 12 10 8 5 3 3 3 5 8 10 13
37 37 38 40 41 43 45 47 48 49 51 52 53 54 54 54 53 53 53 53 54 55 55 56 57 58 58 59 59 59 58 58 59 59 60 61 62 63 63 63 62 62 62 61 60 59 57 57 57 57 55 54 52 52 51 50 49 47 46 44 41 37 33 32 28 25 27 26 22 22 22 20 20 20 18 17 16 14 12 10 8 5 4 4 3 6 8 11
38 39 40 42 44 47 49 50 52 54 55 56 56 57 56 56 55 55 55 56 57 58 58 59 59 61 61 61 62 62 61 60 59 60 60 61 62 63 64 64 63 63 63 63 62 60 59 58 58 59 57 56 55 54 53 51 50 49 48 47 44 40 36 35 33 27 26 27 25 25 25 24 24 24 22 20 19 16 13 12 10 8 7 5 1 5 6 8
40 41 42 44 47 50 52 54 56 57 58 59 59 59 58 57 57 57 57 58 59 61 61 62 63 63 63 64 64 64 63 62 60 60 60 61 62 63 64 65 65 65 65 64 63 62 61 60 59 59 59 58 57 56 54 53 52 51 50 49 47 44 40 38 36 30 28 30 29 27 27 27 26 25 24 23 22 19 15 13 11 10 9 7 2 3 5 6
41 42 44 47 50 53 56 58 59 61 61 62 61 61 60 59 59 59 59 60 61 63 64 65 66 66 66 67 66 65 65 64 63 62 62 63 63 64 66 66 67 67 66 66 65 63 62 62 61 59 59 60 59 58 57 55 54 53 52 51 49 47 44 40 37 35 33 31 29 28 29 28 26 26 25 25 24 22 18 15 13 12 11 9 5 3 3 5
42 44 47 50 53 57 59 61 62 64 65 64 63 62 62 61 61 61 61 61 63 65 66 67 68 69 69 68 68 67 66 66 67 66 64 65 65 66 67 67 68 69 68 67 67 65 64 64 62 61 60 60 61 60 59 58 57 56 54 53 52 50 47 43 40 37 36 34 30 29 31 29 28 27 26 26 24 22 19 16 14 13 13 10 7 5 3 4
44 46 50 53 57 60 62 64 66 68 68 67 66 65 64 63 63 62 62 63 64 65 67 68 70 71 72 71 70 70 70 70 70 69 67 67 67 67 68 69 70 70 70 69 68 67 66 66 65 63 61 60 62 63 63 61 60 58 55 54 54 52 49 46 43 39 37 36 32 31 32 31 31 29 27 26 24 22 20 19 17 15 15 12 8 7 4 3
46 49 53 56 60 62 64 67 69 71 72 71 69 68 66 65 65 64 63 63 64 65 67 69 71 73 74 73 73 72 72 72 72 71 70 69 68 68 69 69 70 71 71 71 70 69 68 68 67 65 64 63 64 66 66 63 60 59 57 55 55 54 52 48 46 41 39 39 35 33 33 33 33 32 29 27 25 23 22 21 20 17 17 15 10 9 6 3
49 52 56 59 62 65 67 70 72 74 74 73 72 70 69 68 66 65 63 62 63 64 65 68 70 73 75 76 75 74 74 74 73 72 71 71 70 69 69 70 71 71 72 72 72 71 70 70 69 68 68 67 65 66 66 64 62 60 58 57 57 56 55 52 50 44 42 42 39 36 36 35 35 35 32 29 26 25 25 23 21 19 18 17 13 11 9 5
51 55 58 62 64 67 70 73 75 76 76 75 74 73 71 68 65 61 59 58 58 59 62 65 69 72 75 77 78 77 76 76 75 74 73 73 72 71 70 70 71 71 72 73 74 73 72 71 72 72 72 69 66 65 66 66 64 62 60 58 58 58 57 56 54 49 45 44 43 42 40 38 37 37 35 31 28 25 26 25 22 20 19 18 15 13 11 7
54 58 61 64 66 69 73 76 77 77 77 76 75 72 68 62 57 53 51 51 51 53 57 61 66 71 74 77 78 78 78 78 77 77 75 75 75 74 72 72 72 72 72 73 74 75 74 74 75 75 73 70 68 66 66 67 66 64 62 60 60 60 59 58 57 56 52 47 45 44 44 42 38 38 36 33 31 27 26 26 23 20 20 18 16 14 13 11
57 60 64 66 68 72 76 78 78 78 77 76 72 66 59 52 48 45 43 43 45 47 51 56 62 68 73 76 78 79 80 80 80 80 78 77 77 76 75 73 73 73 73 74 75 76 77 78 78 76 74 72 70 68 67 67 68 67 64 62 62 61 61 61 60 60 59 55 49 44 45 46 41 39 37 35 34 31 28 28 25 22 21 21 19 17 14 12
59 62 66 68 71 76 78 79 79 79 77 73 66 57 50 44 41 39 38 38 39 41 45 50 57 64 70 75 78 80 81 82 82 82 80 79 78 78 77 75 74 74 73 74 75 77 79 80 79 76 75 74 72 70 69 68 69 69 67 65 64 63 63 63 62 61 61 60 57 50 46 46 44 40 39 38 37 34 31 29 27 24 23 24 23 20 16 14
61 65 68 70 74 78 80 81 80 79 75 67 57 49 43 39 36 34 34 34 35 37 40 45 51 58 66 72 77 80 81 82 83 83 82 81 79 79 78 77 75 75 74 75 76 78 80 80 79 77 77 76 74 72 71 70 70 70 70 68 66 65 64 64 64 64 63 62 61 57 51 47 45 42 41 41 41 38 34 31 29 25 24 25 25 22 18 16
63 67 70 73 77 80 82 82 80 77 69 59 50 43 38 34 32 31 30 31 32 34 36 40 45 52 59 67 74 78 81 83 84 85 84 83 81 80 80 79 78 76 76 76 76 78 80 80 79 79 78 77 76 74 73 73 72 71 72 71 69 67 66 66 65 65 64 63 61 60 57 52 49 46 43 42 43 42 38 34 30 27 27 28 27 24 22 19
65 69 72 75 79 81 82 82 81 74 63 52 44 38 33 30 27 26 26 27 29 30 33 36 40 46 52 60 68 75 80 83 85 86 86 85 83 82 81 81 80 78 77 77 77 78 79 79 80 80 80 79 77 76 75 75 74 73 73 74 72 70 68 66 66 65 64 64 62 60 58 55 53 51 47 44 43 44 42 38 35 32 31 29 28 26 24 22
67 70 73 76 80 82 83 82 79 68 56 47 40 33 29 26 23 22 22 23 25 27 29 31 36 40 46 53 62 70 77 82 84 86 87 86 85 84 83 83 82 81 79 79 79 79 79 80 81 82 81 81 80 79 78 77 77 76 75 74 74 72 70 67 66 66 65 64 63 61 59 58 56 54 51 48 44 43 42 41 39 37 35 32 30 28 26 24
68 71 74 77 81 83 83 82 76 63 51 43 36 30 27 23 21 19 19 20 22 23 25 28 31 35 40 47 55 64 72 79 83 85 87 88 87 86 85 84 84 83 82 81 81 80 80 81 82 82 82 82 82 81 80 79 79 79 76 75 75 75 73 70 67 67 66 65 64 63 61 60 58 56 54 51 47 44 42 41 40 39 37 35 33 31 29 28
69 72 75 78 82 83 83 81 72 57 47 40 33 29 26 22 19 17 16 17 18 19 22 24 28 31 36 41 48 57 65 74 80 84 87 89 89 88 87 86 86 85 84 84 83 82 80 80 81 81 82 83 84 83 82 81 81 80 78 76 76 76 75 72 69 68 67 66 65 64 63 62 60 59 56 53 50 46 42 40 40 37 36 36 36 35 33 32
70 73 75 78 82 83 83 80 68 53 44 37 31 28 24 22 18 15 13 13 14 16 19 21 24 28 32 37 43 50 58 68 76 82 86 89 90 90 89 88 87 87 87 86 84 82 81 80 81 81 83 85 85 84 84 83 83 81 79 78 76 75 76 75 71 69 67 66 66 65 64 63 62 61 58 56 53 49 45 42 40 39 37 36 36 36 35 33
70 73 76 79 82 83 83 78 64 50 42 34 29 26 23 21 18 15 13 11 12 14 16 18 22 25 28 33 38 45 52 61 70 78 83 87 89 90 90 89 88 88 88 88 85 83 82 81 81 82 83 85 86 86 85 85 84 82 80 79 77 75 75 75 73 70 67 67 67 66 65 65 64 62 60 59 56 53 49 46 44 43 41 39 37 35 34 34
71 73 76 79 82 83 83 77 61 48 40 33 28 25 22 19 17 14 13 11 11 11 13 16 19 22 25 29 34 40 47 55 64 73 80 85 88 90 91 90 89 89 89 89 87 85 84 83 82 83 85 85 86 86 87 87 86 84 82 81 79 76 74 74 74 72 70 69 69 67 67 67 66 63 62 62 60 57 54 50 47 45 44 43 40 37 36 36
71 73 75 79 82 83 83 76 59 46 38 32 27 25 22 19 16 14 13 12 11 11 11 13 15 18 22 26 30 36 42 50 58 67 75 82 86 89 91 91 90 90 90 89 88 86 85 85 84 85 86 86 87 87 88 88 87 86 85 83 81 79 76 74 74 75 75 74 72 69 68 68 68 65 64 65 63 60 58 55 50 47 46 45 43 41 40 38
71 73 75 79 82 83 83 75 59 45 37 31 26 24 21 19 17 15 14 13 12 12 11 12 13 15 18 22 27 32 38 45 53 61 69 77 83 88 90 91 91 91 90 90 89 88 87 86 86 86 87 88 88 89 89 89 89 87 86 85 82 80 79 77 76 78 80 79 75 71 69 69 69 68 66 66 65 64 62 60 55 50 48 47 46 45 44 41
71 73 75 78 81 82 83 76 58 44 36 30 26 23 20 19 17 16 14 13 12 13 13 12 13 14 16 19 24 29 34 41 48 56 64 72 79 85 88 90 91 91 91 91 90 89 89 88 87 87 88 89 90 90 89 89 90 89 87 85 84 83 83 81 79 79 80 80 77 73 71 70 70 69 67 67 67 66 65 64 60 55 52 50 48 47 46 43
71 73 75 78 81 82 83 76 60 44 36 29 25 23 20 18 17 16 14 13 13 14 15 15 16 17 18 20 23 27 32 38 44 51 59 67 74 81 86 89 91 92 92 92 91 91 90 89 89 90 90 90 90 90 90 90 90 90 88 87 88 88 86 83 81 79 78 78 77 75 73 72 71 70 69 68 67 67 67 66 65 61 56 53 51 48 46 45
71 73 75 77 81 82 82 78 62 46 36 29 24 22 19 17 17 16 16 15 16 17 18 20 21 22 23 24 25 27 31 35 41 47 54 61 69 76 83 87 90 92 93 93 92 92 91 91 91 92 91 91 91 91 90 90 90 90 90 90 90 88 86 84 82 80 79 78 77 77 76 75 73 71 70 69 68 69 69 68 68 65 62 59 56 52 49 47
71 73 75 77 81 82 82 79 66 48 37 30 24 21 19 18 18 18 18 19 20 21 22 24 26 27 27 28 29 30 31 34 39 44 50 57 64 71 78 84 89 92 94 94 93 93 93 93 93 93 92 91 91 91 91 90 90 91 91 91 90 88 87 86 84 83 81 79 78 78 77 77 76 74 72 71 70 70 70 69 69 68 66 63 61 58 54 51
70 72 74 77 80 82 82 80 69 52 39 31 25 21 19 18 19 20 20 21 22 23 24 26 28 30 31 32 33 33 34 34 38 42 48 53 59 66 73 79 85 90 93 94 94 94 94 94 94 93 93 92 92 92 92 91 92 92 92 91 90 89 88 87 86 84 83 81 79 78 77 77 78 77 75 73 72 72 71 71 70 69 67 65 64 61 58 55
70 71 74 76 79 82 82 80 71 55 41 33 27 23 20 19 19 20 20 21 22 24 25 27 28 29 30 32 34 35 36 36 37 41 45 50 56 62 68 74 81 86 91 93 94 94 95 95 94 94 94 93 93 93 93 93 93 93 93 92 92 91 89 88 86 85 83 82 80 78 77 78 80 80 77 75 74 74 73 72 72 70 69 67 66 64 62 59
69 70 72 75 78 81 81 80 74 59 45 36 29 25 22 20 19 20 21 22 23 25 27 27 27 26 26 28 31 34 37 38 38 40 44 48 53 59 64 70 76 82 87 90 92 94 95 95 95 94 94 94 93 93 94 94 94 94 94 93 92 92 91 89 87 86 85 83 82 80 79 78 79 80 80 78 76 75 74 74 73 72 71 69 68 66 65 63
68 69 71 74 77 79 81 80 74 62 48 38 31 26 24 21 20 19 20 22 24 27 29 28 26 23 21 23 27 32 36 38 39 40 43 47 51 56 61 66 72 78 83 87 89 92 94 95 95 95 95 95 95 94 94 95 95 95 94 93 92 92 91 89 88 87 86 84 83 83 81 80 79 80 81 81 79 78 76 75 75 74 73 71 70 69 68 66
67 68 70 73 75 78 80 79 75 64 49 39 33 28 25 23 20 19 20 22 26 29 30 28 24 20 17 18 23 29 34 38 40 42 44 47 50 53 58 63 68 74 79 84 87 89 92 94 95 95 96 96 96 96 95 95 95 95 94 93 92 92 91 90 89 88 87 85 85 84 83 82 80 80 81 82 81 80 79 77 76 76 76 74 72 71 70 69
66 68 70 72 75 77 79 79 75 66 52 41 34 29 26 24 21 20 20 23 28 31 32 29 24 19 15 15 19 25 31 37 41 43 44 47 49 52 56 60 65 70 75 80 84 87 90 93 94 95 96 97 97 97 96 95 95 94 93 92 91 91 91 90 89 88 87 87 86 86 85 84 83 81 81 82 82 82 81 80 79 78 77 76 75 73 72 71
66 67 69 72 74 77 79 79 76 68 54 42 36 31 28 25 22 21 21 23 28 33 34 30 25 20 14 11 14 20 26 33 39 42 44 47 49 52 54 58 62 66 71 76 80 84 88 91 92 94 95 96 96 96 96 95 94 94 93 92 91 91 91 90 89 88 87 87 87 87 87 87 86 84 83 83 83 82 82 81 81 80 80 79 77 75 74 73
65 67 69 71 74 76 78 79 77 71 58 45 37 33 30 27 24 22 22 24 28 33 35 32 27 22 16 10 10 15 21 29 35 41 44 47 49 51 53 56 60 64 68 72 76 81 85 88 90 91 92 94 95 95 96 95 94 94 93 92 91 91 90 90 89 88 88 88 88 88 88 89 88 87 86 85 84 83 82 81 82 81 81 81 79 77 76 75
65 66 68 70 73 76 78 79 77 72 60 47 39 34 31 28 25 24 23 25 28 32 35 33 28 24 19 13 8 10 16 23 31 37 42 46 49 52 54 56 58 62 65 69 73 77 81 85 88 89 90 91 94 95 95 95 94 94 93 93 93 92 91 90 89 88 88 87 88 88 89 90 90 89 87 86 85 84 83 81 81 82 82 82 82 80 78 77
64 66 67 70 72 74 77 78 77 73 63 49 39 35 31 28 26 24 25 27 29 32 33 32 28 25 21 16 11 8 11 18 25 32 39 44 48 51 54 55 57 60 64 67 70 74 77 81 84 86 87 90 92 93 94 95 95 94 94 94 94 93 92 91 90 90 89 88 88 88 89 90 91 90 89 88 87 86 85 83 82 82 83 83 83 82 81 80
63 65 67 69 71 73 76 77 76 73 64 51 40 35 31 28 26 24 25 28 31 33 33 30 27 25 23 19 14 9 8 12 19 27 34 40 46 50 53 55 57 59 62 65 68 71 74 78 81 83 85 87 89 91 93 94 94 95 94 94 94 94 93 92 91 91 90 89 88 88 88 89 90 91 90 90 89 88 87 86 85 84 83 83 83 83 82 82
63 64 66 68 70 72 74 76 75 72 65 53 41 35 31 27 25 24 25 28 31 34 34 30 25 23 22 21 17 12 8 8 13 21 28 35 41 47 52 55 57 58 60 63 66 69 72 75 77 80 83 85 88 90 91 92 94 95 95 94 94 94 94 94 92 91 91 91 89 88 87 87 89 91 92 91 90 90 90 89 88 86 85 84 83 83 83 82
62 63 65 67 69 71 73 75 74 72 65 54 42 35 30 26 24 23 24 28 31 34 34 30 25 22 21 20 18 14 10 8 9 14 22 29 36 42 48 53 56 58 60 62 65 68 71 73 75 77 80 83 86 88 90 92 93 93 94 94 94 95 95 95 94 93 92 92 91 90 89 88 89 91 92 92 91 91 91 90 89 88 87 85 84 84 84 83
Wind_Direction
318 315 311 308 305 303 300 297 294 290 284 278 272 268 265 263 260 254 248 244 243 243 241 237 234 232 231 231 230 229 229 229 227 224 223 224 224 224 224 224 224 222 221 220 218 219 219 220 219 218 218 218 219 219 220 219 218 212 207 205 205 209 204 197 170 163 170 156 131 108 184 185 153 263 337 343 341 51 51 50 46 39 42 37 35 39 41 40
317 313 309 305 302 300 298 296 294 292 289 285 281 275 269 266 263 261 256 250 245 243 242 240 238 234 232 231 231 229 228 228 227 225 224 224 224 224 224 224 225 223 221 220 219 218 219 220 219 218 217 217 218 218 220 219 219 214 210 209 209 211 202 192 168 160 174 165 188 196 169 183 196 240 278 304 314 53 54 48 48 39 41 39 35 38 40 39
315 312 309 305 302 299 296 294 291 289 287 285 283 280 276 271 266 263 261 257 252 246 243 242 241 238 235 232 231 230 229 227 226 225 225 224 224 224 224 224 225 224 222 221 219 219 218 219 219 219 218 217 217 218 220 220 220 217 213 211 212 211 200 189 157 141 166 164 197 228 198 212 205 224 249 274 297 31 49 45 50 41 41 41 35 36 38 39
314 311 308 305 302 299 296 293 291 288 285 282 280 279 277 275 271 266 263 260 257 253 248 243 242 241 239 235 232 231 230 228 226 225 225 224 224 225 224 224 224 224 223 222 220 219 218 218 219 219 218 218 217 218 220 220 220 218 215 212 212 210 200 187 157 142 166 171 178 196 200 207 199 218 239 254 274 286 34 48 55 44 40 41 36 35 37 38
318 314 310 307 304 301 298 296 293 290 287 283 280 277 275 273 271 269 266 262 259 256 253 248 244 242 241 239 235 233 231 229 226 225 224 223 224 224 224 224 224 223 223 223 221 219 218 218 218 218 218 218 217 218 220 220 220 219 217 214 212 209 202 189 168 157 178 186 177 173 188 201 199 215 229 234 255 250 91 58 57 47 37 38 36 34 36 37
317 314 310 306 303 300 298 296 294 292 289 286 283 280 276 273 270 268 266 264 262 258 255 252 248 245 242 240 238 235 233 230 228 226 224 223 223 223 224 224 224 223 223 223 222 220 219 218 217 217 217 218 218 218 219 219 219 219 217 215 212 209 204 193 178 172 185 194 182 176 191 202 201 207 211 224 247 223 122 68 54 45 34 33 34 34 36 37
312 310 308 305 302 299 297 295 293 292 290 288 285 282 279 276 273 269 266 263 262 260 257 254 251 248 245 242 239 237 235 232 230 227 225 224 223 222 223 224 224 224 223 223 222 221 220 219 218 217 217 218 218 218 218 219 219 220 218 216 213 210 206 196 185 182 187 192 189 185 194 200 199 196 198 226 235 193 117 75 54 40 30 28 30 34 36 38
308 307 306 304 302 300 298 295 293 291 290 289 286 283 280 277 275 272 268 264 261 259 258 256 253 249 246 244 241 238 236 234 232 229 226 224 224 222 222 223 224 224 223 223 222 221 221 220 218 217 216 217 218 218 218 218 219 219 220 218 215 210 207 198 190 188 189 190 193 192 192 197 200 193 194 222 221 169 115 83 59 35 25 23 24 32 38 39
306 305 304 304 303 302 300 298 295 292 290 289 287 285 282 279 275 272 269 266 263 259 256 255 254 251 248 245 243 240 237 235 233 231 228 225 224 223 222 221 223 224 223 222 222 221 221 220 219 217 216 217 218 217 217 218 218 219 220 219 216 211 206 199 191 192 192 190 192 195 194 196 199 196 194 208 212 170 121 95 60 26 14 17 20 31 42 43
304 304 304 304 304 303 302 300 297 294 292 290 288 286 284 281 277 273 269 266 263 260 256 253 252 251 249 247 244 241 238 236 234 232 230 226 224 223 223 221 221 223 223 222 222 221 221 220 219 218 217 217 217 217 217 217 217 218 220 219 215 211 207 200 193 193 196 194 195 197 198 197 198 201 196 197 205 196 166 160 171 359 357 9 20 34 47 48
304 304 304 304 305 304 304 302 299 296 293 291 289 287 285 282 278 274 269 265 262 259 257 254 251 249 248 247 244 242 239 237 234 232 230 228 225 224 223 222 221 221 222 222 221 221 221 221 220 219 217 217 217 217 217 217 217 217 219 218 214 211 207 203 197 194 196 196 198 202 204 201 198 200 198 197 203 210 209 196 205 269 324 352 24 37 50 53
305 305 304 305 305 305 305 303 301 298 295 292 290 287 284 281 277 274 269 265 261 258 255 253 251 248 246 245 244 242 240 237 234 231 230 228 226 224 224 222 221 221 222 221 220 220 221 221 221 219 218 217 217 217 216 216 216 216 217 218 214 211 207 204 200 197 197 194 195 201 205 202 198 199 199 201 206 213 214 200 202 230 269 314 26 41 51 58
306 305 305 305 306 306 306 304 302 299 296 293 290 287 284 281 277 272 268 265 261 257 254 252 250 248 246 244 243 242 240 237 235 232 230 228 227 225 224 223 222 221 222 221 220 219 220 221 220 219 218 217 216 217 217 216 216 215 216 216 215 211 207 204 201 199 197 193 193 199 200 197 197 199 198 202 207 212 214 201 199 216 238 272 27 49 53 61
307 306 306 306 307 307 306 305 302 300 297 294 291 287 284 280 276 271 267 263 260 257 254 251 249 248 246 243 242 241 240 238 236 234 232 229 227 226 225 224 223 222 221 222 221 219 220 221 221 220 218 217 216 216 216 215 215 215 214 215 214 211 207 205 202 198 195 192 194 197 197 197 199 199 198 202 204 206 211 203 200 214 222 234 35 60 56 62
307 306 307 307 308 308 307 306 304 301 298 295 292 288 284 280 275 271 267 263 259 256 253 251 249 247 245 243 242 240 240 239 237 235 233 230 228 226 225 224 223 222 221 221 221 220 219 220 221 220 218 217 216 216 215 215 215 214 213 213 213 211 208 205 202 198 196 194 195 197 196 198 201 200 200 203 205 203 204 203 207 220 218 213 191 82 66 62
308 307 308 309 310 310 309 307 305 303 300 297 293 289 285 281 276 272 267 263 259 256 253 250 248 246 245 243 242 240 239 238 237 235 233 231 228 225 224 223 222 222 221 220 220 220 220 220 220 220 219 218 217 216 215 215 215 214 212 212 212 212 209 206 202 199 198 195 194 195 197 199 200 202 205 205 205 203 199 197 205 218 221 211 188 126 88 69
310 310 311 312 313 312 310 308 307 305 302 299 295 291 287 283 279 274 270 265 261 256 252 249 247 245 244 243 241 240 238 237 235 234 232 231 229 226 223 222 221 221 221 220 220 220 220 220 219 219 219 218 217 217 216 215 215 214 212 211 211 211 210 206 202 200 199 195 194 195 197 197 196 201 209 208 204 203 199 197 201 211 223 218 191 164 122 83
312 313 315 315 314 313 311 310 308 307 304 301 298 294 291 287 282 278 273 267 262 257 252 248 245 244 242 241 240 238 237 235 234 232 231 230 229 227 224 222 220 220 220 220 219 219 219 219 219 219 219 218 217 217 217 216 215 214 212 212 212 212 211 208 205 203 200 195 196 199 199 195 191 194 207 210 207 206 204 203 203 206 222 224 199 184 158 109
315 316 317 317 315 314 313 312 310 308 306 304 301 298 294 290 286 281 275 269 263 257 252 247 243 241 240 239 238 237 236 235 233 231 230 229 228 227 225 223 221 219 219 219 219 219 219 219 218 219 219 218 217 216 216 216 215 214 213 212 213 212 211 210 206 205 204 198 195 198 199 194 188 189 200 207 209 212 210 208 205 204 220 228 209 192 182 148
318 319 318 318 317 316 315 314 312 310 308 306 304 301 298 294 289 283 277 270 263 256 250 245 241 239 237 236 235 235 234 234 233 231 230 229 228 227 225 223 221 220 219 219 219 218 218 218 218 219 219 217 217 216 216 216 215 214 213 211 212 212 211 210 206 204 204 202 199 198 196 193 188 189 196 203 207 213 216 212 207 202 213 228 218 197 192 184
320 320 320 320 319 319 318 316 314 312 310 308 306 304 300 296 291 284 277 270 262 254 247 242 238 235 234 233 232 232 232 232 232 231 229 228 228 226 225 224 222 220 219 219 219 218 218 218 218 219 219 217 216 216 216 215 215 214 213 212 212 212 211 210 207 203 202 201 202 203 200 196 193 193 198 202 206 211 217 214 207 203 206 219 220 202 197 205
321 322 322 322 322 321 320 318 316 314 313 311 309 306 302 297 291 284 276 268 260 252 245 238 234 231 230 230 230 229 229 229 230 229 228 227 226 225 224 223 222 220 218 218 218 218 218 218 219 219 218 217 216 216 216 215 215 214 214 213 212 212 211 211 209 206 206 204 201 203 204 200 196 197 199 201 204 206 214 214 207 206 208 213 216 207 204 217
323 324 324 324 324 323 322 320 319 317 316 314 311 308 303 297 290 283 275 267 260 251 243 237 231 228 226 226 226 226 226 226 227 228 227 226 225 225 223 222 221 220 218 217 217 218 218 218 219 218 217 217 216 216 215 215 215 214 214 213 212 212 211 211 210 208 210 210 206 203 203 202 197 195 197 199 201 201 208 217 214 212 213 213 214 212 213 227
325 326 326 326 326 325 324 323 322 321 319 317 313 309 303 297 289 282 274 267 260 252 244 237 231 226 223 222 223 223 223 224 225 225 226 225 224 224 223 222 220 220 218 217 217 217 218 218 218 217 217 217 216 216 215 215 215 214 214 214 213 213 212 212 212 210 211 212 212 209 204 202 198 193 193 196 199 197 202 216 221 217 217 218 217 216 222 233
327 328 329 329 329 328 327 326 325 324 323 319 315 310 304 296 288 280 272 265 259 252 244 238 232 226 223 221 220 220 221 221 222 223 224 224 223 223 222 221 220 219 218 217 217 217 218 218 218 217 217 217 216 216 215 215 215 214 214 214 214 214 212 212 212 212 212 212 213 213 210 206 204 199 195 194 197 197 199 210 221 220 218 221 221 221 228 233
329 330 331 331 331 330 330 329 329 328 325 321 316 311 305 298 290 281 272 264 257 251 244 238 233 227 223 221 219 218 218 218 219 221 222 222 222 222 221 221 220 219 218 217 217 217 217 217 217 217 218 218 217 216 216 216 215 215 214 213 213 214 213 212 213 213 213 213 213 214 214 210 209 208 203 197 196 197 198 203 211 213 213 217 220 223 228 230
331 332 333 333 333 333 333 332 332 330 327 322 318 313 308 302 293 283 274 265 257 250 244 238 234 229 224 221 219 217 216 216 217 218 219 220 220 220 220 220 219 218 218 217 217 217 217 216 216 216 217 217 217 217 216 216 216 215 214 213 213 214 214 213 213 213 214 214 213 214 214 212 210 211 210 205 199 198 199 202 206 208 211 217 220 223 227 227
333 334 335 336 335 336 335 336 335 332 328 324 321 317 313 307 298 287 276 266 258 251 244 238 234 230 226 222 219 217 215 215 215 216 217 218 219 219 219 219 218 218 217 216 217 217 216 216 216 216 216 217 217 217 216 216 216 216 215 213 213 213 214 213 213 214 214 214 214 214 214 213 211 211 212 210 206 203 201 204 209 211 214 218 218 221 226 226
334 336 337 338 338 338 338 339 337 334 330 327 324 322 318 312 304 292 278 267 260 252 245 238 234 230 227 224 221 218 216 214 214 214 215 216 217 218 218 218 218 217 217 216 216 216 216 215 215 215 216 216 217 217 216 216 217 217 215 213 213 213 214 213 212 213 214 214 214 214 214 213 212 211 212 212 211 208 206 206 209 213 217 220 221 222 224 224
336 337 339 339 340 340 341 341 339 335 331 329 327 326 323 318 311 300 284 271 262 254 247 240 234 229 227 225 222 220 217 215 214 213 213 214 215 216 217 217 217 216 216 216 216 215 215 215 215 215 215 216 217 217 217 217 218 217 216 214 213 213 214 213 212 213 214 214 214 215 215 214 213 211 211 212 212 211 212 212 211 213 218 222 224 224 223 223
337 339 340 341 342 343 344 343 341 336 333 332 330 329 326 322 317 309 294 279 266 255 247 242 236 229 226 224 223 221 219 217 215 213 213 213 214 215 216 216 216 216 216 216 215 215 214 214 214 215 215 216 216 217 217 217 218 217 216 216 214 214 214 214 213 213 214 214 215 215 215 215 214 212 211 213 213 211 213 215 213 212 215 221 224 222 221 224
338 340 342 343 344 345 346 345 342 337 335 334 332 330 327 325 322 317 306 291 274 260 250 244 239 233 227 224 222 221 219 218 216 214 213 212 213 215 215 215 215 215 215 216 215 214 214 214 214 214 215 216 216 216 217 218 217 216 216 217 215 215 215 214 214 214 214 215 215 215 215 216 216 213 212 212 213 211 211 212 212 211 213 218 220 219 217 221
339 341 343 344 346 347 348 347 344 339 336 335 333 331 327 325 324 319 312 300 285 270 256 248 242 238 231 226 223 222 220 218 217 216 214 213 212 213 215 215 215 214 215 215 215 214 213 213 213 213 214 215 216 216 217 218 217 216 216 217 216 215 215 215 215 214 215 215 215 215 215 216 216 215 213 213 213 211 211 211 210 211 214 217 219 217 215 217
340 342 344 346 347 349 350 349 345 340 338 336 334 330 326 324 322 318 312 303 293 279 263 252 245 242 237 231 226 223 221 219 218 217 216 214 213 213 214 215 215 214 214 215 215 214 214 213 212 213 213 214 215 215 216 217 217 215 216 216 216 214 214 214 214 214 215 215 214 214 215 216 216 215 215 214 214 212 212 212 211 210 213 217 219 218 216 216
340 343 345 347 349 350 351 351 347 342 339 337 334 330 325 323 319 314 311 304 295 286 273 259 249 243 239 236 231 227 223 221 219 217 216 216 214 213 213 214 214 214 214 215 215 214 214 213 213 213 213 214 214 215 216 217 216 216 215 216 216 215 214 214 214 214 215 215 213 212 214 216 216 215 215 215 215 214 214 214 213 209 209 213 216 217 216 216
341 344 346 348 350 352 353 352 349 344 341 338 334 330 324 320 315 310 306 299 291 285 278 270 261 253 245 240 236 231 227 223 220 218 217 216 216 214 213 213 214 214 214 214 215 215 214 214 213 213 214 214 214 214 215 216 216 216 215 215 216 216 215 214 214 215 216 215 213 212 213 216 216 215 216 216 216 216 215 216 216 212 209 210 212 214 214 214
341 344 347 349 351 352 353 353 350 345 342 340 335 330 323 317 310 305 302 295 286 280 276 274 269 264 257 249 241 235 230 226 222 220 218 217 216 216 214 214 214 214 214 214 214 215 215 214 214 214 214 214 214 215 215 216 216 216 215 215 216 216 215 214 214 215 216 216 214 213 214 216 216 215 216 217 218 218 217 217 218 216 213 212 212 213 213 214
342 345 347 350 352 353 354 354 352 347 344 342 336 329 322 315 310 305 302 295 288 282 279 275 272 269 263 257 250 241 234 229 225 221 219 218 217 216 216 215 214 215 215 214 214 214 215 215 214 214 214 214 214 215 215 215 216 216 215 215 216 216 216 215 215 216 216 216 214 214 215 216 216 215 216 217 218 219 219 219 219 219 218 217 217 217 217 217
342 345 348 350 352 354 355 355 353 349 346 343 337 330 324 317 310 304 299 294 289 285 282 280 277 274 268 262 255 248 239 232 227 223 221 219 218 217 216 216 215 215 215 215 214 214 214 215 215 215 215 214 215 215 215 216 216 216 216 216 216 216 216 216 216 216 216 215 214 214 215 217 217 215 215 216 217 219 220 220 220 221 221 221 221 221 221 221
343 346 348 350 353 354 355 355 354 350 346 343 339 332 324 314 306 300 297 295 292 289 287 284 280 276 270 263 256 250 243 235 229 225 222 220 219 218 217 216 216 216 216 216 215 215 215 215 215 215 215 215 215 215 215 216 216 216 216 216 216 216 217 217 217 217 216 215 215 215 215 217 218 216 216 216 217 218 220 221 222 222 222 222 223 224 224 224
343 346 348 350 353 354 355 355 354 351 347 344 340 334 324 313 306 302 300 298 296 296 294 292 287 279 270 262 254 247 242 236 229 226 224 221 219 218 217 217 216 216 216 217 217 216 216 215 215 215 216 216 216 215 215 216 216 217 216 216 215 215 216 217 217 218 217 216 216 216 216 217 218 217 216 217 217 218 219 221 222 223 222 222 223 224 225 225
343 346 348 350 352 354 355 355 354 351 348 344 341 335 328 319 312 306 303 303 304 305 306 304 298 288 273 259 249 242 238 234 228 224 223 222 219 218 218 217 216 216 216 217 218 217 217 217 216 216 216 216 216 216 216 216 216 217 216 216 216 215 215 216 217 218 218 217 217 217 217 218 219 218 218 218 218 219 220 221 222 223 223 223 223 223 223 224
344 346 348 350 352 354 355 355 354 351 348 344 341 336 331 324 316 310 309 310 314 316 317 316 310 298 279 259 245 237 233 230 227 221 220 221 220 218 218 217 217 216 216 217 217 218 218 218 217 217 216 217 217 217 217 217 217 217 217 216 216 215 215 216 217 217 218 217 217 218 218 219 220 220 219 219 219 220 220 221 223 224 224 224 224 223 222 223
344 346 348 350 352 354 355 355 354 352 348 344 341 337 332 327 321 317 317 320 323 325 326 325 320 309 288 261 243 233 228 226 224 220 217 218 219 218 217 217 217 217 217 217 217 218 218 219 218 218 217 217 217 217 217 217 218 218 218 217 216 216 215 216 216 217 218 218 218 219 219 219 220 220 220 220 220 220 221 221 222 224 224 225 225 224 223 223
344 346 348 349 351 353 355 355 355 352 348 345 341 338 334 331 327 324 325 327 331 332 333 332 330 322 301 268 244 232 226 223 222 219 215 214 216 218 217 216 217 217 217 217 217 217 218 219 219 219 218 218 218 218 218 218 218 219 219 218 218 217 216 216 216 217 217 218 218 219 220 220 220 220 221 222 221 221 221 221 222 223 225 225 225 226 225 224
344 346 347 349 351 353 354 355 355 353 349 345 342 339 336 334 331 330 330 333 337 339 338 338 337 332 316 278 249 234 226 222 220 219 216 213 214 216 216 216 216 216 217 217 217 217 218 219 219 219 219 220 220 220 219 219 219 219 220 220 219 218 217 217 216 217 217 218 219 220 221 221 220 220 221 222 222 222 222 222 222 223 225 226 225 226 227 227
344 346 347 349 350 352 354 355 355 353 350 346 343 340 337 336 334 332 333 338 343 345 343 341 341 339 331 303 259 237 227 222 219 217 217 214 213 214 215 216 215 215 216 217 217 217 218 218 219 219 220 221 221 221 221 220 220 220 220 220 220 219 219 218 217 217 217 218 219 220 221 222 222 221 221 222 223 223 223 223 223 224 224 226 226 226 227 228
343 345 347 349 350 352 353 354 354 353 351 347 344 341 337 336 334 333 335 340 346 349 347 344 342 341 339 329 293 250 229 222 220 217 216 215 214 213 214 215 215 215 215 216 217 218 218 218 219 219 220 221 221 222 222 221 221 221 220 220 220 220 219 218 217 217 217 218 219 220 221 223 223 222 222 222 223 223 223 224 224 225 225 225 226 226 227 228
343 345 347 348 350 351 353 354 354 353 351 347 344 341 338 335 334 333 336 340 346 350 351 346 341 341 343 339 322 284 243 225 220 218 216 216 215 214 214 215 215 215 215 215 216 217 218 218 218 218 219 220 221 221 222 222 222 222 221 221 221 220 220 219 218 218 217 218 219 220 222 223 224 223 222 223 223 224 224 224 224 225 225 226 226 227 227 227
342 344 346 347 349 351 352 353 353 352 350 347 344 341 338 335 334 334 336 340 344 349 352 349 342 340 342 341 333 312 273 238 222 218 217 216 216 215 214 214 215 216 215 215 216 217 218 218 218 218 219 220 221 221 222 222 223 223 222 222 222 221 221 220 219 218 218 218 219 220 221 223 224 224 223 223 224 224 225 224 225 225 226 226 227 227 227 228
341 343 345 347 348 350 351 353 353 352 350 347 343 341 338 335 333 333 336 340 344 348 351 350 343 339 341 340 336 328 304 264 233 221 217 216 217 217 216 215 215 216 216 215 216 217 217 218 218 218 218 219 220 221 221 222 222 223 223 223 222 222 222 221 220 219 219 218 219 220 221 223 224 225 224 224 224 225 225 225 225 225 226 226 227 228 228 229
340 342 344 346 347 349 351 352 352 352 350 346 343 340 338 334 331 332 335 340 344 346 348 348 343 340 342 342 339 335 324 295 255 230 220 216 216 217 217 216 216 216 216 216 216 216 217 217 217 217 218 218 220 220 221 221 222 222 223 223 224 223 223 222 221 220 219 219 219 220 221 222 224 225 225 225 225 226 226 226 226 227 227 227 228 228 229 229
Height
10927 10926 10926 10925 10925 10924 10924 10924 10923 10923 10923 10923 10923 10923 10923 10923 10923 10923 10924 10924 10925 10926 10928 10929 10930 10932 10933 10935 10937 10939 10942 10945 10947 10951 10955 10956 10958 10962 10964 10966 10968 10971 10974 10977 10980 10984 10986 10989 10992 10995 10998 11001 11004 11007 11009 11011 11014 11016 11017 11018 11019 11020 11021 11022 11024 11024 11025 11025 11026 11027 11028 11029 11030 11030 11029 11030 11030 11030 11029 11028 11027 11026 11025 11024 11022 11019 11018 11017
10925 10924 10924 10923 10922 10922 10922 10921 10921 10921 10920 10921 10921 10921 10921 10921 10921 10920 10921 10921 10922 10922 10923 10925 10926 10928 10929 10930 10932 10934 10937 10939 10943 10948 10950 10952 10955 10958 10960 10962 10964 10968 10971 10973 10977 10980 10983 10986 10988 10992 10995 10999 11002 11005 11007 11009 11012 11014 11016 11017 11018 11019 11020 11022 11023 11024 11024 11025 11025 11026 11027 11028 11030 11030 11030 11031 11031 11031 11030 11029 11028 11028 11026 11025 11024 11021 11020 11019
10923 10922 10921 10921 10920 10920 10919 10919 10918 10918 10918 10917 10917 10917 10918 10918 10918 10918 10918 10917 10918 10918 10919 10921 10922 10923 10925 10926 10928 10930 10932 10934 10939 10943 10945 10948 10951 10953 10955 10958 10960 10964 10967 10970 10973 10976 10979 10982 10985 10989 10993 10997 11000 11003 11005 11007 11010 11012 11014 11015 11016 11017 11019 11021 11022 11023 11023 11025 11025 11026 11027 11028 11029 11030 11030 11031 11031 11031 11031 11030 11029 11029 11027 11026 11025 11023 11022 11021
10921 10920 10919 10919 10918 10917 10917 10916 10916 10915 10915 10914 10914 10914 10914 10914 10914 10914 10914 10914 10914 10914 10915 10916 10918 10919 10920 10922 10923 10925 10927 10929 10934 10937 10940 10944 10946 10948 10951 10954 10956 10960 10963 10966 10969 10972 10976 10980 10983 10987 10990 10994 10998 11001 11003 11005 11007 11009 11012 11013 11015 11016 11017 11019 11021 11022 11022 11023 11025 11026 11027 11028 11029 11029 11030 11031 11032 11032 11032 11031 11030 11029 11028 11027 11026 11025 11024 11023
10919 10918 10917 10916 10916 10915 10914 10913 10913 10912 10911 10911 10910 10910 10910 10910 10910 10910 10910 10910 10910 10910 10911 10912 10913 10914 10915 10917 10919 10921 10922 10925 10929 10932 10934 10938 10941 10943 10946 10949 10952 10955 10958 10962 10965 10968 10972 10976 10979 10984 10988 10991 10995 10997 11000 11002 11004 11007 11009 11011 11013 11014 11016 11018 11020 11021 11021 11022 11023 11025 11026 11027 11028 11029 11030 11030 11031 11032 11032 11031 11030 11030 11029 11028 11028 11027 11026 11025
10916 10915 10915 10914 10913 10912 10911 10910 10909 10908 10908 10907 10906 10906 10906 10906 10905 10905 10905 10905 10905 10906 10907 10907 10908 10909 10910 10911 10913 10915 10918 10920 10923 10926 10929 10932 10935 10938 10941 10944 10946 10950 10954 10957 10961 10965 10968 10972 10976 10981 10985 10988 10991 10994 10997 10999 11002 11004 11007 11009 11011 11012 11014 11016 11018 11019 11020 11021 11022 11023 11025 11025 11026 11028 11029 11030 11031 11032 11031 11031 11030 11030 11030 11029 11029 11028 11027 11026
10914 10913 10911 10910 10909 10908 10907 10906 10906 10904 10903 10903 10902 10902 10901 10901 10900 10900 10900 10900 10900 10901 10902 10902 10903 10904 10904 10905 10907 10909 10912 10915 10917 10920 10924 10927 10929 10932 10936 10939 10941 10945 10949 10953 10957 10961 10965 10969 10973 10978 10982 10984 10987 10990 10993 10996 10999 11002 11005 11007 11009 11010 11012 11015 11017 11018 11019 11020 11021 11022 11024 11025 11026 11027 11028 11029 11030 11031 11031 11031 11031 11030 11030 11031 11030 11030 11029 11028
10911 10910 10908 10907 10906 10905 10903 10902 10901 10900 10899 10898 10897 10896 10896 10895 10895 10894 10894 10895 10895 10895 10896 10897 10897 10898 10899 10900 10901 10903 10906 10909 10911 10915 10918 10921 10923 10926 10931 10934 10937 10941 10945 10949 10953 10957 10961 10965 10970 10974 10978 10980 10983 10987 10990 10993 10997 11000 11002 11004 11006 11009 11012 11014 11016 11016 11017 11019 11020 11021 11023 11025 11026 11027 11028 11029 11030 11031 11030 11031 11031 11031 11031 11032 11032 11031 11030 11029
10907 10906 10904 10903 10902 10900 10899 10898 10896 10895 10894 10893 10892 10891 10890 10889 10889 10888 10888 10888 10888 10889 10890 10891 10891 10892 10893 10894 10895 10897 10899 10901 10905 10908 10912 10915 10918 10921 10925 10928 10932 10936 10940 10944 10948 10953 10957 10961 10966 10970 10973 10976 10979 10983 10987 10990 10994 10997 10999 11001 11005 11009 11011 11012 11013 11014 11016 11018 11019 11021 11022 11024 11025 11026 11027 11029 11030 11030 11030 11031 11031 11031 11032 11032 11033 11032 11031 11030
10903 10902 10900 10899 10897 10895 10894 10893 10891 10890 10888 10887 10886 10885 10883 10883 10882 10882 10882 10881 10881 10881 10882 10883 10884 10885 10886 10887 10888 10890 10892 10894 10897 10901 10905 10909 10913 10916 10920 10923 10927 10930 10934 10939 10944 10949 10953 10957 10961 10965 10969 10972 10975 10979 10983 10987 10990 10994 10995 10998 11004 11008 11009 11011 11011 11013 11015 11017 11018 11020 11021 11023 11024 11025 11026 11027 11029 11030 11030 11031 11031 11032 11032 11033 11033 11033 11032 11031
10899 10897 10895 10894 10892 10890 10889 10887 10885 10883 10882 10880 10879 10878 10876 10875 10874 10874 10874 10874 10874 10874 10874 10875 10876 10877 10878 10879 10881 10883 10884 10886 10889 10893 10898 10902 10907 10911 10914 10918 10923 10926 10929 10933 10939 10945 10949 10953 10956 10961 10965 10967 10971 10976 10980 10983 10987 10990 10991 10995 11001 11005 11007 11009 11010 11011 11013 11016 11018 11020 11021 11022 11023 11024 11025 11026 11028 11029 11030 11030 11031 11032 11033 11033 11034 11033 11032 11032
10894 10892 10890 10888 10886 10884 10882 10880 10878 10876 10875 10873 10871 10870 10868 10867 10866 10866 10866 10865 10865 10865 10866 10866 10867 10868 10870 10871 10874 10875 10876 10878 10881 10885 10890 10895 10900 10905 10909 10913 10918 10921 10924 10928 10934 10940 10944 10947 10951 10956 10959 10963 10967 10971 10975 10979 10983 10985 10988 10993 10998 11001 11005 11007 11008 11009 11010 11013 11017 11019 11021 11021 11022 11023 11024 11025 11027 11028 11029 11030 11031 11032 11033 11033 11034 11034 11033 11032
10888 10886 10884 10882 10880 10878 10876 10873 10871 10869 10866 10865 10863 10861 10859 10858 10857 10857 10856 10856 10856 10856 10857 10857 10858 10859 10860 10863 10865 10865 10867 10870 10874 10878 10883 10888 10893 10899 10903 10907 10912 10916 10919 10923 10928 10934 10938 10941 10945 10950 10953 10959 10963 10966 10970 10974 10978 10981 10984 10989 10994 10998 11002 11003 11004 11005 11008 11012 11015 11017 11018 11019 11021 11022 11023 11024 11026 11028 11029 11029 11030 11031 11033 11034 11034 11034 11033 11033
10882 10880 10878 10876 10874 10871 10868 10866 10863 10860 10857 10855 10853 10851 10849 10848 10847 10846 10846 10846 10846 10846 10847 10848 10848 10849 10851 10853 10855 10856 10860 10863 10868 10872 10876 10881 10887 10893 10897 10902 10906 10910 10914 10918 10923 10928 10932 10935 10939 10943 10949 10954 10957 10960 10965 10970 10973 10977 10980 10985 10989 10994 10997 10998 11000 11003 11006 11010 11012 11014 11015 11017 11019 11020 11022 11023 11024 11026 11028 11029 11029 11031 11032 11033 11034 11034 11034 11033
10877 10874 10872 10869 10867 10864 10861 10857 10854 10851 10847 10845 10842 10840 10838 10837 10836 10835 10835 10835 10834 10834 10835 10837 10838 10839 10841 10843 10845 10848 10852 10856 10861 10865 10869 10874 10879 10885 10889 10895 10899 10903 10908 10913 10917 10921 10926 10929 10932 10938 10944 10948 10951 10955 10960 10964 10968 10971 10975 10980 10985 10989 10993 10995 10998 11001 11004 11007 11009 11011 11013 11015 11016 11018 11020 11021 11023 11025 11027 11028 11029 11030 11031 11033 11034 11034 11034 11034
10871 10868 10866 10863 10859 10856 10852 10848 10844 10840 10837 10834 10831 10828 10826 10825 10823 10822 10822 10823 10822 10822 10823 10825 10827 10829 10830 10832 10835 10840 10844 10849 10853 10856 10860 10865 10870 10875 10880 10886 10891 10895 10901 10905 10910 10915 10919 10922 10926 10933 10938 10942 10947 10951 10955 10959 10962 10966 10971 10976 10981 10985 10988 10992 10995 10998 11001 11004 11007 11008 11010 11013 11015 11016 11018 11019 11021 11023 11025 11027 11028 11029 11031 11032 11033 11033 11034 11034
10865 10862 10859 10856 10852 10848 10843 10839 10834 10830 10825 10821 10818 10815 10813 10811 10809 10808 10809 10809 10808 10808 10810 10812 10814 10816 10819 10822 10826 10831 10835 10838 10841 10846 10851 10855 10860 10866 10871 10877 10883 10888 10893 10898 10903 10908 10912 10916 10921 10927 10931 10936 10942 10946 10949 10952 10955 10960 10966 10971 10976 10980 10984 10988 10993 10995 10998 11002 11004 11006 11008 11010 11013 11014 11016 11018 11020 11022 11024 11026 11027 11029 11030 11031 11032 11033 11033 11033
10858 10855 10852 10848 10844 10839 10834 10829 10824 10818 10813 10808 10805 10802 10799 10796 10794 10793 10793 10792 10792 10793 10795 10797 10800 10803 10806 10811 10815 10819 10823 10826 10830 10835 10841 10846 10851 10857 10863 10868 10874 10880 10885 10891 10896 10901 10906 10911 10915 10920 10925 10930 10935 10938 10941 10944 10949 10956 10963 10968 10972 10976 10981 10986 10990 10993 10995 10998 11001 11003 11005 11008 11011 11013 11014 11016 11019 11021 11023 11024 11026 11027 11029 11030 11031 11032 11033 11033
10852 10848 10845 10841 10836 10831 10825 10819 10813 10806 10800 10795 10791 10787 10783 10780 10777 10775 10774 10774 10774 10775 10778 10781 10785 10788 10792 10797 10802 10807 10811 10814 10819 10826 10831 10837 10843 10849 10854 10860 10866 10872 10878 10883 10888 10893 10899 10904 10909 10914 10917 10921 10924 10928 10933 10940 10948 10954 10960 10965 10969 10973 10978 10983 10986 10989 10992 10994 10997 11000 11003 11005 11008 11011 11012 11014 11017 11020 11021 11023 11025 11027 11028 11029 11030 11031 11033 11033
10845 10841 10837 10833 10827 10821 10815 10808 10801 10794 10787 10781 10776 10771 10766 10762 10758 10756 10754 10754 10754 10756 10760 10764 10769 10773 10778 10783 10789 10794 10799 10804 10810 10817 10823 10828 10835 10840 10846 10852 10859 10864 10871 10876 10881 10886 10891 10897 10902 10904 10905 10910 10917 10923 10931 10938 10945 10949 10954 10959 10963 10968 10973 10977 10981 10985 10987 10990 10993 10996 10999 11001 11005 11008 11010 11012 11014 11017 11019 11021 11024 11026 11027 11028 11029 11030 11032 11033
10838 10834 10830 10825 10819 10812 10805 10797 10789 10781 10774 10767 10760 10754 10748 10743 10739 10736 10735 10734 10735 10738 10742 10747 10752 10757 10762 10768 10775 10782 10788 10793 10800 10806 10812 10819 10825 10831 10837 10844 10850 10857 10863 10869 10874 10880 10885 10890 10892 10893 10898 10907 10915 10921 10927 10933 10939 10944 10949 10954 10958 10963 10967 10971 10976 10980 10983 10986 10989 10992 10995 10997 11001 11005 11008 11011 11013 11015 11017 11020 11023 11024 11026 11027 11028 11029 11030 11031
10831 10827 10822 10816 10810 10802 10794 10786 10777 10769 10760 10752 10745 10737 10731 10726 10722 10719 10718 10717 10719 10721 10725 10730 10735 10741 10748 10754 10761 10769 10776 10782 10789 10794 10801 10808 10814 10820 10828 10835 10841 10848 10855 10862 10868 10873 10878 10881 10881 10885 10895 10904 10910 10916 10922 10927 10933 10939 10944 10949 10953 10958 10962 10966 10971 10975 10978 10981 10984 10988 10991 10995 10999 11002 11006 11009 11011 11013 11014 11017 11021 11023 11024 11026 11027 11028 11029 11030
10824 10820 10814 10808 10801 10793 10784 10774 10765 10756 10746 10738 10729 10721 10716 10712 10708 10706 10705 10705 10706 10708 10711 10715 10721 10727 10734 10740 10748 10757 10764 10770 10776 10782 10790 10797 10803 10811 10818 10825 10832 10840 10847 10853 10859 10865 10868 10868 10872 10882 10892 10898 10904 10910 10915 10921 10927 10932 10938 10944 10948 10952 10956 10961 10965 10970 10973 10977 10981 10985 10988 10992 10996 11000 11003 11006 11009 11011 11012 11015 11018 11020 11022 11024 11026 11027 11028 11029
10817 10812 10806 10799 10792 10783 10773 10763 10753 10743 10733 10723 10715 10709 10704 10701 10698 10696 10695 10695 10696 10698 10701 10704 10709 10714 10720 10727 10735 10743 10751 10758 10764 10771 10779 10787 10794 10801 10808 10816 10824 10832 10838 10845 10850 10855 10857 10860 10869 10880 10886 10891 10898 10904 10909 10914 10920 10926 10932 10937 10942 10946 10951 10955 10960 10964 10968 10972 10977 10981 10985 10989 10993 10997 11001 11003 11006 11009 11010 11012 11015 11018 11020 11022 11024 11026 11027 11029
10810 10805 10798 10791 10782 10773 10762 10752 10742 10731 10720 10711 10704 10699 10695 10692 10690 10688 10688 10687 10688 10690 10692 10695 10699 10703 10709 10716 10723 10731 10740 10747 10754 10761 10769 10777 10785 10792 10800 10809 10816 10823 10830 10836 10842 10846 10849 10857 10868 10875 10880 10886 10892 10898 10903 10908 10912 10918 10924 10930 10935 10940 10945 10950 10954 10958 10962 10967 10972 10977 10982 10987 10991 10994 10997 11000 11003 11006 11008 11010 11012 11015 11018 11020 11022 11024 11026 11027
10804 10797 10791 10783 10774 10763 10752 10741 10731 10720 10710 10701 10695 10691 10687 10685 10683 10682 10681 10681 10682 10683 10685 10688 10691 10695 10700 10706 10712 10720 10728 10736 10743 10751 10759 10768 10776 10783 10792 10799 10807 10815 10822 10828 10833 10837 10843 10853 10862 10868 10873 10879 10885 10891 10897 10900 10905 10910 10915 10922 10929 10934 10939 10943 10948 10953 10958 10963 10969 10974 10979 10985 10988 10991 10994 10997 11000 11003 11006 11008 11010 11013 11015 11017 11020 11022 11024 11025
10798 10791 10783 10775 10766 10756 10744 10732 10721 10710 10701 10694 10689 10685 10682 10679 10678 10677 10676 10676 10676 10678 10680 10682 10685 10688 10692 10697 10703 10710 10718 10726 10733 10741 10749 10758 10765 10774 10782 10789 10798 10806 10813 10819 10825 10829 10837 10847 10853 10859 10865 10871 10878 10884 10889 10893 10897 10901 10907 10915 10922 10927 10932 10938 10944 10949 10953 10960 10965 10970 10975 10980 10984 10987 10991 10994 10997 10999 11003 11006 11008 11010 11012 11014 11017 11020 11021 11023
10792 10785 10777 10768 10758 10748 10737 10724 10712 10702 10694 10688 10684 10680 10677 10675 10674 10672 10672 10671 10671 10673 10675 10677 10680 10682 10686 10690 10695 10701 10708 10716 10724 10732 10740 10748 10756 10764 10772 10780 10788 10796 10803 10810 10815 10821 10830 10837 10844 10850 10857 10862 10868 10874 10880 10885 10889 10892 10899 10908 10915 10921 10926 10933 10939 10943 10949 10955 10961 10966 10970 10974 10979 10983 10987 10990 10993 10996 10999 11003 11006 11008 11010 11012 11015 11017 11019 11021
10787 10779 10771 10762 10752 10741 10730 10718 10706 10696 10689 10683 10679 10676 10673 10672 10670 10669 10669 10668 10668 10670 10671 10673 10675 10678 10682 10685 10689 10694 10700 10707 10715 10723 10731 10738 10746 10754 10762 10770 10779 10787 10794 10800 10805 10812 10821 10828 10836 10843 10850 10855 10860 10865 10873 10878 10881 10885 10893 10902 10908 10914 10920 10927 10933 10938 10944 10951 10956 10961 10965 10969 10974 10979 10982 10987 10991 10994 10997 11000 11003 11006 11008 11010 11012 11014 11016 11018
10782 10774 10765 10756 10746 10735 10724 10712 10700 10691 10685 10680 10676 10673 10671 10669 10668 10667 10666 10666 10666 10667 10668 10669 10672 10674 10677 10680 10684 10689 10694 10700 10707 10714 10721 10728 10736 10744 10753 10761 10769 10777 10784 10789 10795 10804 10813 10822 10829 10837 10842 10847 10852 10859 10866 10870 10873 10879 10889 10895 10901 10908 10914 10921 10928 10933 10939 10945 10950 10955 10960 10964 10969 10974 10979 10983 10987 10991 10993 10996 10999 11002 11004 11006 11009 11012 11014 11015
10777 10769 10760 10751 10740 10730 10718 10707 10696 10688 10682 10677 10674 10671 10669 10667 10666 10665 10665 10664 10664 10664 10665 10666 10668 10671 10673 10676 10679 10683 10688 10694 10700 10706 10713 10720 10728 10736 10744 10752 10760 10767 10773 10779 10787 10797 10806 10814 10821 10829 10833 10838 10844 10850 10856 10861 10866 10875 10884 10890 10897 10904 10909 10916 10923 10929 10936 10940 10945 10950 10955 10960 10964 10970 10975 10979 10982 10986 10989 10992 10995 10998 11001 11003 11006 11008 11011 11012
10772 10764 10755 10746 10736 10725 10714 10703 10692 10685 10679 10675 10672 10670 10667 10665 10664 10664 10663 10663 10663 10663 10664 10664 10665 10667 10670 10672 10675 10678 10683 10687 10693 10699 10706 10713 10721 10729 10736 10743 10751 10758 10764 10771 10780 10790 10798 10806 10814 10820 10825 10829 10835 10842 10847 10852 10860 10870 10878 10883 10892 10899 10905 10912 10919 10926 10931 10935 10939 10945 10950 10954 10958 10965 10971 10974 10977 10980 10984 10987 10990 10993 10997 10999 11002 11004 11007 11009
10768 10760 10751 10742 10732 10721 10710 10699 10690 10682 10677 10673 10671 10668 10666 10665 10663 10663 10662 10662 10662 10662 10662 10663 10664 10665 10667 10670 10672 10674 10678 10682 10687 10693 10700 10707 10714 10721 10728 10735 10743 10750 10756 10763 10773 10782 10789 10797 10804 10809 10815 10821 10828 10834 10839 10844 10853 10863 10870 10876 10884 10893 10900 10907 10914 10921 10925 10928 10933 10939 10944 10948 10953 10960 10965 10968 10971 10975 10978 10982 10985 10989 10992 10995 10998 11001 11004 11006
10763 10756 10747 10738 10728 10718 10707 10697 10687 10680 10675 10672 10669 10667 10665 10663 10662 10662 10661 10661 10661 10661 10661 10662 10662 10663 10665 10667 10669 10671 10673 10677 10681 10687 10693 10699 10706 10713 10720 10727 10734 10741 10748 10756 10765 10773 10780 10788 10794 10799 10805 10812 10819 10824 10828 10835 10845 10855 10861 10867 10875 10884 10891 10898 10904 10910 10913 10917 10924 10932 10938 10941 10947 10953 10958 10961 10966 10970 10973 10977 10980 10984 10987 10991 10994 10997 11000 11002
10759 10752 10743 10734 10725 10715 10705 10695 10686 10679 10674 10670 10667 10665 10663 10662 10661 10660 10660 10660 10660 10659 10660 10660 10661 10662 10663 10664 10666 10667 10670 10672 10676 10681 10686 10692 10699 10706 10712 10719 10726 10734 10741 10749 10758 10766 10773 10780 10786 10791 10797 10803 10807 10813 10820 10828 10837 10845 10852 10860 10870 10877 10882 10888 10893 10897 10900 10906 10917 10926 10932 10934 10939 10946 10951 10955 10960 10964 10968 10972 10975 10978 10982 10986 10990 10993 10996 10999
10755 10748 10740 10731 10722 10712 10703 10693 10684 10678 10673 10669 10666 10664 10662 10660 10659 10659 10659 10659 10659 10658 10658 10658 10659 10659 10660 10661 10662 10664 10666 10668 10672 10675 10680 10685 10691 10698 10705 10711 10718 10726 10733 10741 10750 10757 10763 10770 10777 10783 10788 10793 10798 10806 10813 10820 10828 10836 10846 10856 10863 10866 10871 10879 10885 10890 10894 10902 10913 10922 10926 10928 10933 10940 10946 10950 10954 10959 10963 10966 10969 10973 10976 10980 10984 10988 10991 10995
10751 10744 10736 10728 10719 10710 10701 10692 10684 10677 10672 10668 10665 10662 10661 10659 10658 10657 10657 10657 10657 10657 10656 10656 10656 10657 10658 10658 10659 10660 10662 10664 10667 10670 10674 10678 10684 10690 10697 10704 10710 10717 10724 10733 10741 10747 10755 10762 10768 10772 10777 10784 10792 10800 10806 10812 10820 10830 10839 10846 10848 10851 10861 10872 10879 10884 10890 10899 10909 10916 10919 10922 10928 10935 10940 10944 10948 10952 10956 10960 10964 10968 10971 10975 10979 10982 10986 10990
10748 10740 10733 10725 10716 10708 10699 10690 10682 10676 10671 10667 10664 10662 10659 10658 10657 10656 10656 10655 10655 10655 10654 10654 10654 10654 10654 10655 10655 10656 10657 10659 10662 10665 10669 10673 10677 10684 10690 10697 10704 10709 10716 10724 10731 10739 10746 10753 10757 10762 10769 10778 10785 10792 10798 10806 10814 10823 10830 10834 10838 10847 10859 10866 10872 10879 10885 10894 10903 10909 10913 10916 10922 10928 10933 10937 10941 10945 10950 10954 10958 10962 10966 10970 10974 10977 10981 10985
10744 10737 10729 10721 10713 10705 10696 10688 10681 10674 10670 10666 10663 10661 10658 10656 10655 10654 10654 10653 10652 10652 10652 10651 10650 10650 10650 10650 10651 10652 10653 10655 10657 10660 10664 10667 10672 10677 10683 10690 10697 10702 10709 10716 10723 10730 10736 10742 10749 10755 10763 10771 10778 10784 10792 10800 10807 10813 10820 10827 10835 10845 10852 10857 10864 10871 10877 10886 10894 10900 10905 10910 10915 10921 10926 10930 10935 10938 10943 10947 10952 10956 10961 10964 10968 10972 10976 10981
10741 10733 10726 10718 10710 10702 10694 10686 10679 10673 10668 10665 10662 10659 10657 10655 10654 10652 10652 10651 10649 10649 10648 10647 10646 10645 10644 10644 10644 10645 10647 10649 10652 10655 10658 10662 10666 10671 10676 10683 10690 10696 10703 10709 10716 10722 10727 10734 10742 10748 10756 10763 10769 10776 10785 10793 10799 10804 10812 10819 10828 10837 10844 10850 10858 10864 10871 10880 10888 10893 10899 10903 10907 10913 10919 10924 10928 10931 10935 10940 10945 10950 10955 10959 10963 10967 10971 10976
10738 10731 10723 10715 10707 10699 10691 10683 10676 10671 10667 10663 10660 10658 10656 10654 10652 10650 10649 10647 10646 10644 10643 10642 10640 10638 10637 10636 10636 10638 10640 10643 10646 10649 10652 10656 10660 10664 10669 10675 10682 10689 10696 10703 10709 10715 10720 10727 10734 10741 10749 10755 10761 10769 10778 10784 10789 10795 10803 10811 10820 10828 10836 10843 10852 10859 10867 10876 10882 10888 10894 10895 10898 10905 10913 10917 10921 10924 10928 10933 10938 10942 10948 10952 10956 10960 10966 10970
10735 10728 10721 10713 10705 10697 10689 10681 10674 10668 10664 10660 10658 10655 10654 10652 10650 10648 10646 10644 10642 10640 10638 10635 10633 10631 10629 10628 10628 10630 10633 10636 10640 10643 10646 10650 10654 10658 10663 10669 10675 10682 10688 10695 10701 10707 10714 10721 10728 10735 10742 10748 10755 10763 10769 10775 10780 10787 10795 10803 10812 10821 10828 10836 10845 10852 10860 10868 10876 10881 10885 10887 10892 10899 10905 10910 10915 10918 10923 10927 10931 10935 10940 10945 10949 10954 10959 10964
10733 10726 10719 10711 10704 10696 10688 10680 10672 10666 10661 10658 10655 10653 10651 10649 10647 10645 10643 10640 10638 10635 10632 10629 10626 10624 10622 10621 10621 10623 10625 10629 10633 10637 10640 10643 10647 10652 10657 10662 10668 10674 10680 10687 10694 10701 10707 10714 10721 10729 10735 10740 10748 10754 10760 10767 10774 10779 10787 10797 10806 10814 10823 10831 10839 10845 10852 10861 10868 10872 10876 10881 10886 10892 10897 10902 10908 10912 10917 10921 10924 10928 10933 10937 10942 10947 10952 10957
10731 10724 10717 10710 10703 10696 10688 10680 10671 10664 10660 10656 10653 10651 10649 10647 10644 10642 10640 10637 10634 10631 10627 10624 10621 10618 10617 10616 10616 10616 10619 10622 10626 10630 10633 10637 10641 10646 10651 10656 10661 10667 10673 10679 10686 10693 10699 10705 10713 10722 10728 10732 10738 10745 10752 10760 10766 10773 10782 10792 10800 10809 10817 10824 10831 10838 10846 10854 10859 10864 10869 10874 10879 10884 10889 10894 10899 10904 10909 10914 10917 10921 10925 10929 10935 10939 10945 10951
10728 10721 10714 10707 10701 10694 10687 10679 10671 10664 10658 10655 10651 10649 10646 10644 10642 10640 10637 10634 10631 10627 10623 10620 10617 10615 10613 10611 10611 10612 10613 10616 10620 10624 10627 10632 10635 10639 10644 10650 10655 10660 10666 10672 10679 10685 10691 10697 10706 10714 10720 10725 10731 10738 10746 10753 10761 10769 10778 10787 10796 10803 10811 10818 10825 10832 10840 10846 10851 10856 10861 10865 10871 10877 10882 10886 10891 10895 10900 10906 10910 10913 10917 10922 10927 10932 10937 10943
10725 10718 10711 10704 10697 10691 10684 10678 10670 10663 10657 10653 10649 10646 10643 10641 10639 10637 10635 10632 10628 10623 10619 10616 10613 10612 10610 10608 10608 10608 10609 10611 10615 10618 10623 10627 10630 10634 10638 10643 10648 10654 10659 10665 10672 10678 10684 10691 10699 10707 10715 10721 10727 10734 10741 10749 10757 10765 10773 10782 10790 10798 10805 10812 10820 10827 10833 10838 10843 10848 10852 10856 10861 10867 10872 10877 10882 10887 10893 10898 10902 10906 10910 10915 10920 10926 10930 10935
10721 10715 10708 10701 10694 10687 10681 10674 10668 10661 10655 10650 10646 10643 10640 10638 10636 10634 10632 10630 10626 10621 10616 10613 10610 10608 10607 10606 10605 10605 10606 10607 10610 10614 10618 10622 10625 10629 10633 10637 10642 10648 10653 10659 10665 10670 10677 10684 10691 10701 10710 10716 10722 10729 10736 10743 10751 10758 10766 10775 10782 10790 10798 10806 10814 10820 10825 10830 10835 10840 10843 10846 10851 10857 10863 10869 10874 10879 10885 10890 10894 10899 10903 10908 10913 10919 10923 10926
10718 10712 10706 10699 10691 10685 10678 10671 10664 10658 10653 10648 10644 10641 10638 10635 10633 10631 10629 10627 10625 10621 10615 10611 10608 10606 10605 10603 10603 10603 10603 10604 10606 10609 10613 10617 10621 10625 10628 10632 10636 10641 10647 10652 10657 10663 10670 10677 10685 10695 10703 10708 10715 10722 10729 10736 10745 10752 10759 10766 10773 10780 10789 10798 10805 10811 10817 10823 10827 10831 10834 10836 10841 10849 10857 10862 10866 10871 10878 10883 10887 10890 10895 10899 10905 10910 10915 10918
10714 10709 10703 10696 10690 10683 10676 10669 10662 10655 10650 10646 10642 10639 10636 10633 10631 10629 10626 10624 10622 10619 10615 10610 10607 10605 10603 10602 10601 10601 10601 10602 10603 10605 10608 10612 10616 10620 10624 10627 10631 10635 10641 10646 10651 10657 10663 10670 10678 10688 10694 10700 10707 10714 10721 10729 10737 10744 10751 10758 10764 10772 10780 10788 10795 10802 10809 10814 10818 10822 10825 10828 10834 10842 10849 10854 10859 10864 10870 10875 10878 10881 10885 10891 10896 10901 10906 10910
10711 10706 10700 10694 10688 10681 10675 10668 10661 10654 10648 10644 10641 10637 10634 10631 10629 10627 10624 10622 10619 10617 10614 10610 10607 10604 10602 10601 10600 10599 10599 10600 10601 10602 10604 10607 10611 10615 10619 10623 10626 10631 10635 10640 10645 10651 10656 10664 10672 10680 10685 10691 10698 10706 10714 10722 10729 10735 10742 10749 10756 10764 10772 10779 10786 10793 10800 10805 10809 10813 10817 10821 10827 10833 10839 10845 10850 10855 10859 10864 10868 10872 10877 10882 10888 10893 10897 10901
10708 10703 10698 10692 10686 10680 10673 10667 10660 10653 10647 10642 10639 10636 10633 10630 10627 10625 10623 10621 10618 10614 10612 10609 10607 10604 10602 10600 10599 10598 10598 10598 10599 10600 10601 10603 10606 10610 10614 10618 10622 10626 10630 10635 10639 10644 10649 10657 10665 10672 10677 10683 10689 10697 10705 10712 10718 10725 10733 10741 10748 10755 10762 10770 10777 10785 10792 10797 10802 10806 10810 10814 10818 10822 10829 10835 10841 10844 10848 10854 10859 10864 10869 10875 10880 10885 10889 10892
10704 10700 10695 10690 10684 10679 10672 10666 10659 10652 10646 10641 10637 10634 10632 10629 10626 10624 10622 10620 10617 10613 10610 10608 10606 10603 10601 10599 10598 10597 10596 10596 10597 10598 10599 10600 10602 10605 10609 10613 10617 10621 10625 10629 10633 10638 10643 10650 10657 10664 10669 10675 10680 10687 10694 10700 10708 10717 10725 10733 10740 10745 10752 10759 10767 10775 10782 10788 10794 10798 10801 10805 10808 10813 10820 10827 10831 10835 10840 10846 10852 10857 10862 10867 10872 10876 10880 10883